Location: Newark
(36.3167°N, 3.7500°E)
Time: 16:25:48
(UTC+00:00)

Envisat - Visible Passes

Search period start: 14 November 2019 00:00
Search period end: 24 November 2019 00:00
Orbit: 764 x 766 km, 98.1° (Epoch: 14 November)

Date Brightness Start Highest point End Pass type
(mag) Time Alt. Az. Time Alt. Az. Time Alt. Az.
14 Nov 5.4 05:49:55 10° NE 05:54:18 29° E 05:58:38 10° SSE visible
14 Nov 3.8 17:02:00 10° SE 17:06:21 29° ENE 17:10:43 10° N visible
14 Nov 5.0 18:40:59 10° SSW 18:45:17 28° W 18:49:38 10° NW visible
15 Nov 6.4 05:15:21 10° ENE 05:17:13 12° E 05:19:05 10° ESE visible
15 Nov 3.4 18:03:21 10° S 18:08:24 66° WSW 18:13:28 10° NNW visible
16 Nov 3.1 17:26:47 10° SSE 17:31:41 53° ENE 17:36:37 10° N visible
16 Nov 5.9 19:08:04 10° SW 19:10:59 15° W 19:13:55 10° WNW visible
17 Nov 5.8 05:39:00 10° NE 05:42:57 22° E 05:46:52 10° SE visible
17 Nov 4.6 18:29:19 10° SSW 18:33:57 36° W 18:38:37 10° NNW visible
18 Nov 3.0 17:52:03 10° SSE 17:57:07 85° WSW 18:02:13 10° NNW visible
19 Nov 3.4 17:15:45 10° SE 17:20:28 41° ENE 17:25:13 10° N visible
19 Nov 5.5 18:55:58 10° SW 18:59:37 20° W 19:03:17 10° NW visible
20 Nov 6.0 05:28:15 10° NE 05:31:36 17° E 05:34:54 10° SE visible
20 Nov 4.0 18:17:47 10° S 18:22:39 46° W 18:27:32 10° NNW visible
21 Nov 2.9 17:40:49 10° SSE 17:45:52 75° ENE 17:50:57 10° N visible
21 Nov 6.3 19:24:42 10° W 19:25:22 10° W 19:26:02 10° W visible
22 Nov 5.2 05:52:45 10° NE 05:57:16 31° E 06:01:45 10° SSE visible
22 Nov 3.7 17:04:48 10° SE 17:09:16 32° ENE 17:13:45 10° N visible
22 Nov 5.2 18:44:06 10° SSW 18:48:16 25° W 18:52:27 10° NW visible
23 Nov 6.2 05:17:48 10° ENE 05:20:13 13° E 05:22:37 10° ESE visible
23 Nov 3.5 18:06:21 10° S 18:11:21 60° W 18:16:23 10° NNW visible
